User: anonymous   Login
Location: Deep South Regional Star Gaze
(30.9929°N, 90.9586°W)
Time: 13:31:34
(UTC-06:00)
Language:

MSX - Orbit

View from above orbital plane
View from above orbital plane
View from above satellite
View from above satellite

Ground track
Ground track

The orbit data is extracted from the following two-line orbital elements,

1 23851U 96024A   14349.74894073 0.00000100  00000-0  70516-4 0    00
2 23851  98.7536  27.5036 0008000 351.3253   8.6746 13.97997651    00
Epoch (UTC): 15 December 2014 17:58:28
Eccentricity: 0.0008000
inclination: 98.7536°
perigee height: 895 km
apogee height: 906 km
right ascension of ascending node: 27.5036°
argument of perigee: 351.3253°
revolutions per day: 13.97997651
mean anomaly at epoch: 8.6746°
orbit number at epoch: 0

The dashed part of the orbit path shows where the satellite is in the earth's shadow,  

DLR